Sheppard AFB, TX

8:55 AM CST on February 19, 2017 (GMT -0600)
Sheppard Air Force Base-Wichita Falls Municipal

Weather History for KSPS - December, 2013

Change the Weather History Date:

Saturday, December 7, 2013

  Actual Average Record
Temperature  
Mean Temperature 17 °F 44 °F  
Max Temperature 21 °F 56 °F 87 °F (1966)
Min Temperature 12 °F 32 °F 9 °F (1950)
Degree Days  
Heating Degree Days 48 21  
Month to date heating degree days 187 140  
Since 1 July heating degree days 745 647  
Moisture  
Dew Point 8 °F    
Average Humidity 65    
Maximum Humidity 73    
Minimum Humidity 56    
Precipitation  
Precipitation T in 0.06 in 1.31 in (1960)
Month to date precipitation 0.19 0.39  
Year to date precipitation 20.23 27.69  
Snow  
Snow T in 0.10 in - ()
Month to date snowfall 0.5 0.2  
Since 1 July snowfall 0.7 0.5  
Snow Depth 1.00 in    
Sea Level Pressure  
Sea Level Pressure 30.49 in    
Wind  
Wind Speed 9 mph (NNE)    
Max Wind Speed 23 mph    
Max Gust Speed 25 mph    
Visibility 10 miles    
Events Snow    
T = Trace of Precipitation, MM = Missing Value Source: NWS Daily Summary

Daily Weather History Graph

Daily Weather History Graph

Search for Another Location

Airport or City:

Trip Planner

Search our weather history database for the weather conditions in past years. The results will help you decide how hot, cold, wet, or windy it might be!

Date:

Astronomy

Dec. 07, 2013 Rise Set
Actual Time 7:26 AM CST 5:24 PM CST
Civil Twilight 6:58 AM CST 5:52 PM CST
Nautical Twilight 6:27 AM CST 6:23 PM CST
Astronomical Twilight 5:57 AM CST 6:53 PM CST
Moon 11:21 AM CST (12/7) 10:57 PM CST (12/7)
Length of Visible Light 10h 53m
Length of Day
9h 58m
Waxing Crescent, 29% of the Moon is Illuminated
Dec 7
Waxing Crescent
Dec 9
First Quarter
Dec 17
Full
Dec 25
Last Quarter
Jan 1
New

Hourly Weather History & Observations

Time (CST) Temp. Windchill Dew Point Humidity Pressure Visibility Wind Dir Wind Speed Gust Speed Precip Events Conditions
12:52 AM 15.1 °F 2.5 °F 7.0 °F 70% 30.60 in 10.0 mi North 10.4 mph - 0.01 in   Clear
1:52 AM 14.0 °F -0.2 °F 6.1 °F 71% 30.59 in 10.0 mi North 12.7 mph - N/A   Clear
2:52 AM 12.9 °F -0.2 °F 5.0 °F 71% 30.60 in 10.0 mi NNE 10.4 mph - N/A   Clear
3:52 AM 12.9 °F -1.6 °F 3.9 °F 67% 30.60 in 10.0 mi NNE 12.7 mph - N/A   Clear
4:52 AM 12.0 °F -2.0 °F 3.0 °F 67% 30.60 in 10.0 mi NNE 11.5 mph - N/A   Clear
5:52 AM 12.0 °F -2.0 °F 3.0 °F 67% 30.61 in 10.0 mi North 11.5 mph - N/A   Clear
6:52 AM 12.0 °F -2.0 °F 3.9 °F 70% 30.61 in 10.0 mi North 11.5 mph - N/A   Clear
7:52 AM 12.0 °F -1.3 °F 3.9 °F 70% 30.65 in 10.0 mi North 10.4 mph - N/A   Clear
8:52 AM 12.9 °F -2.8 °F 3.9 °F 67% 30.63 in 10.0 mi North 15.0 mph - N/A   Clear
9:52 AM 15.1 °F -2.0 °F 5.0 °F 64% 30.60 in 10.0 mi NNE 19.6 mph - N/A   Scattered Clouds
10:52 AM 17.1 °F 3.6 °F 6.1 °F 62% 30.60 in 10.0 mi NE 12.7 mph - N/A   Mostly Cloudy
11:52 AM 17.1 °F 5.8 °F 6.1 °F 62% 30.58 in 10.0 mi NNE 9.2 mph - N/A   Overcast
12:52 PM 18.0 °F 11.1 °F 7.0 °F 62% 30.53 in 10.0 mi NNW 4.6 mph - N/A   Overcast
1:52 PM 19.0 °F 11.1 °F 7.0 °F 59% 30.48 in 10.0 mi North 5.8 mph - N/A   Overcast
2:52 PM 19.0 °F 9.0 °F 9.0 °F 65% 30.45 in 9.0 mi North 8.1 mph - 0.00 in Snow Light Snow
3:52 PM 19.9 °F 10.1 °F 9.0 °F 62% 30.42 in 10.0 mi NNE 8.1 mph - 0.00 in   Overcast
4:52 PM 19.9 °F 9.3 °F 10.0 °F 65% 30.41 in 10.0 mi North 9.2 mph - N/A   Overcast
5:52 PM 19.9 °F 10.1 °F 10.9 °F 68% 30.41 in 10.0 mi North 8.1 mph - N/A   Overcast
6:52 PM 19.9 °F 12.1 °F 10.9 °F 68% 30.38 in 10.0 mi NE 5.8 mph - N/A   Overcast
7:52 PM 21.0 °F 11.4 °F 12.0 °F 68% 30.38 in 10.0 mi ENE 8.1 mph - N/A   Overcast
8:40 PM 21.2 °F 13.6 °F 12.2 °F 68% 30.32 in 10.0 mi ENE 5.8 mph - N/A   Overcast
8:52 PM 21.0 °F 16.2 °F 12.9 °F 71% 30.37 in 10.0 mi East 3.5 mph - N/A   Overcast
9:52 PM 21.0 °F 14.6 °F 12.9 °F 71% 30.35 in 10.0 mi ESE 4.6 mph - N/A   Overcast
10:52 PM 21.0 °F 16.2 °F 12.9 °F 71% 30.32 in 10.0 mi ESE 3.5 mph - N/A   Overcast
11:52 PM 21.0 °F - 12.9 °F 71% 30.30 in 10.0 mi Calm Calm - N/A   Overcast